This is the latest recevied weather packets stored in our database for station/object IR9AK-10. If no packets are shown the sender has not sent any weather packets the latest 10 day(s).
| Time | Temp. | Humidity | Pressure | Rain* | Wind** | Luminosity | Snow |
|---|---|---|---|---|---|---|---|
| 1777553172 | 22.22° C | 58% | 1060.6 hPa | - | - | - | - |
| 1777552574 | 22.78° C | 55% | 1060.5 hPa | - | - | - | - |
| 1777551975 | 22.78° C | 58% | 1060.5 hPa | - | - | - | - |
| 1777551377 | 22.22° C | 60% | 1060.7 hPa | - | - | - | - |
| 1777550777 | 22.22° C | 64% | 1060.5 hPa | - | - | - | - |
| 1777550178 | 22.22° C | 67% | 1060.6 hPa | - | - | - | - |
| 1777549579 | 22.22° C | 64% | 1060.6 hPa | - | - | - | - |
| 1777548979 | 22.22° C | 57% | 1060.4 hPa | - | - | - | - |
| 1777548380 | 22.22° C | 53% | 1060.4 hPa | - | - | - | - |
| 1777547780 | 22.22° C | 54% | 1060.2 hPa | - | - | - | - |
| 1777547181 | 22.78° C | 54% | 1060 hPa | - | - | - | - |
| 1777546582 | 22.78° C | 55% | 1060.1 hPa | - | - | - | - |
| 1777545982 | 22.78° C | 58% | 1060.1 hPa | - | - | - | - |
| 1777545383 | 22.78° C | 58% | 1060.1 hPa | - | - | - | - |
| 1777544784 | 22.78° C | 60% | 1060 hPa | - | - | - | - |
| 1777544185 | 22.78° C | 61% | 1060.1 hPa | - | - | - | - |
| 1777543586 | 22.78° C | 63% | 1060.3 hPa | - | - | - | - |
| 1777542988 | 22.78° C | 62% | 1060.4 hPa | - | - | - | - |
| 1777542389 | 22.78° C | 61% | 1060.4 hPa | - | - | - | - |
| 1777541790 | 22.78° C | 62% | 1060.4 hPa | - | - | - | - |
| 1777541191 | 22.22° C | 63% | 1060.5 hPa | - | - | - | - |
| 1777540592 | 22.22° C | 64% | 1060.6 hPa | - | - | - | - |
| 1777539994 | 21.67° C | 64% | 1060.7 hPa | - | - | - | - |
| 1777539395 | 21.67° C | 64% | 1060.8 hPa | - | - | - | - |
| 1777538795 | 22.22° C | 64% | 1060.8 hPa | - | - | - | - |
* Rain since midnight (hover to see other rain measurements)
** Current wind speed in m/s (hover to see current wind gust speed)